Location: Winthrop
(48.4780°N, 120.1850°W)
Time: 02:43:19
(UTC-08:00)

Transit 4A - All Passes

Search period start: 31 January 2023 00:00
Search period end: 10 February 2023 00:00
Orbit: 871 x 973 km, 66.8° (Epoch: 30 January)

Date Brightness Start Highest point End Pass type
(mag) Time Alt. Az. Time Alt. Az. Time Alt. Az.
31 Jan - 00:57:29 10° NNW 01:01:58 22° NNE 01:06:32 10° E night (unlit)
31 Jan - 02:43:26 10° NNW 02:49:22 71° NE 02:55:26 10° SE night (unlit)
31 Jan - 04:30:31 10° WNW 04:35:13 25° WSW 04:39:59 10° SSW night (unlit)
31 Jan - 17:54:18 10° S 17:59:45 42° ESE 18:05:12 10° NE visible
31 Jan - 19:40:35 10° WSW 19:46:06 43° NW 19:51:40 10° NNE visible
31 Jan - 21:30:30 10° WNW 21:34:04 16° NNW 21:37:39 10° NNE visible
31 Jan - 23:20:17 10° NNW 23:23:02 13° N 23:25:49 10° NE night (unlit)
01 Feb - 01:06:36 10° NNW 01:11:33 27° NE 01:16:35 10° E night (unlit)
01 Feb - 02:52:38 10° NW 02:58:37 86° SW 03:04:43 10° SSE night (unlit)
01 Feb - 04:40:29 10° WNW 04:44:09 17° WSW 04:47:51 10° SW night (unlit)
01 Feb - 18:03:08 10° SSW 18:08:50 61° ESE 18:14:34 10° NE visible
01 Feb - 19:50:20 10° WSW 19:55:33 33° NW 20:00:48 10° NNE visible
01 Feb - 21:40:43 10° NW 21:43:48 14° NNW 21:46:55 10° NNE visible
01 Feb - 23:29:39 10° NNW 23:32:49 15° NNE 23:36:01 10° NE night (unlit)
02 Feb - 01:15:44 10° NNW 01:21:04 33° NE 01:26:30 10° ESE night (unlit)
02 Feb - 03:01:56 10° NW 03:07:48 62° WSW 03:13:47 10° SSE night (unlit)
02 Feb - 04:51:31 10° W 04:53:00 11° W 04:54:29 10° WSW night (unlit)
02 Feb - 16:29:13 10° SE 16:32:33 16° ESE 16:35:53 10° ENE daylight
02 Feb - 18:12:11 10° SSW 18:18:00 85° SE 18:23:52 10° NE visible
02 Feb - 20:00:13 10° W 20:05:03 26° NW 20:09:56 10° NNE visible
02 Feb - 21:50:52 10° NW 21:53:35 13° N 21:56:19 10° NNE visible
02 Feb - 23:38:54 10° NNW 23:42:34 16° NNE 23:46:15 10° ENE night (unlit)
03 Feb - 01:24:51 10° NNW 01:30:30 43° NE 01:36:16 10° ESE night (unlit)
03 Feb - 03:11:17 10° NW 03:16:54 44° WSW 03:22:38 10° S night (unlit)
03 Feb - 16:36:59 10° SSE 16:41:27 23° ESE 16:45:55 10° ENE daylight
03 Feb - 18:21:26 10° SW 18:27:14 71° NW 18:33:05 10° NNE visible
03 Feb - 20:10:16 10° WNW 20:14:38 21° NNW 20:19:04 10° NNE visible
03 Feb - 22:00:51 10° NNW 22:03:24 13° N 22:05:57 10° NNE visible
03 Feb - 23:48:04 10° NNW 23:52:15 19° NNE 23:56:29 10° ENE night (unlit)
04 Feb - 01:34:00 10° NNW 01:39:52 58° NE 01:45:52 10° SE night (unlit)
04 Feb - 03:20:47 10° NW 03:25:56 31° WSW 03:31:11 10° S night (unlit)
04 Feb - 16:45:17 10° S 16:50:25 33° ESE 16:55:35 10° NE daylight
04 Feb - 18:30:53 10° SW 18:36:33 52° NW 18:42:16 10° NNE visible
04 Feb - 20:20:24 10° WNW 20:24:17 18° NNW 20:28:13 10° NNE visible
04 Feb - 22:10:36 10° NNW 22:13:12 13° N 22:15:50 10° NNE visible
04 Feb - 23:57:13 10° NNW 00:01:52 23° NNE 00:06:36 10° E night (unlit)
05 Feb - 01:43:12 10° NNW 01:49:10 78° NE 01:55:16 10° SE night (unlit)
05 Feb - 03:30:29 10° WNW 03:34:55 22° WSW 03:39:24 10° SSW night (unlit)
05 Feb - 16:53:55 10° S 16:59:28 48° ESE 17:05:02 10° NE daylight
05 Feb - 18:40:31 10° WSW 18:45:57 39° NW 18:51:25 10° NNE visible
05 Feb - 20:30:36 10° NW 20:34:00 16° NNW 20:37:26 10° NNE visible
05 Feb - 22:20:06 10° NNW 22:23:00 14° N 22:25:56 10° NE visible
06 Feb - 00:06:20 10° NNW 00:11:26 29° NE 00:16:37 10° E night (unlit)
06 Feb - 01:52:26 10° NW 01:58:23 78° WSW 02:04:29 10° SSE night (unlit)
06 Feb - 03:40:39 10° WNW 03:43:48 15° WSW 03:47:00 10° SW night (unlit)
06 Feb - 15:21:23 10° ESE 15:23:21 12° E 15:25:19 10° E daylight
06 Feb - 17:02:49 10° SSW 17:08:35 69° ESE 17:14:23 10° NE daylight
06 Feb - 18:50:19 10° W 18:55:24 30° NW 19:00:33 10° NNE visible
06 Feb - 20:40:48 10° NW 20:43:46 14° NNW 20:46:45 10° NNE visible
06 Feb - 22:29:26 10° NNW 22:32:47 15° NNE 22:36:09 10° NE visible
07 Feb - 00:15:27 10° NNW 00:20:56 36° NE 00:26:30 10° ESE night (unlit)
07 Feb - 02:01:43 10° NW 02:07:33 56° WSW 02:13:29 10° SSE night (unlit)
07 Feb - 15:28:25 10° SE 15:32:12 18° ESE 15:36:00 10° ENE daylight
07 Feb - 17:11:57 10° SW 17:17:46 86° NW 17:23:38 10° NE daylight
07 Feb - 19:00:15 10° W 19:04:57 24° NNW 19:09:40 10° NNE visible
07 Feb - 20:50:54 10° NNW 20:53:33 13° N 20:56:13 10° NNE visible
07 Feb - 22:38:39 10° NNW 22:42:30 17° NNE 22:46:24 10° ENE visible
08 Feb - 00:24:35 10° NNW 00:30:20 48° NE 00:36:12 10° ESE night (unlit)
08 Feb - 02:11:08 10° NW 02:16:37 39° WSW 02:22:14 10° S night (unlit)
08 Feb - 15:36:24 10° SSE 15:41:07 26° ESE 15:45:51 10° NE daylight
08 Feb - 17:21:16 10° SW 17:27:01 63° NW 17:32:51 10° NNE daylight
08 Feb - 19:10:19 10° WNW 19:14:33 20° NNW 19:18:49 10° NNE visible
08 Feb - 21:00:49 10° NNW 21:03:22 13° N 21:05:56 10° NNE visible
08 Feb - 22:47:48 10° NNW 22:52:10 21° NNE 22:56:35 10° ENE visible
09 Feb - 00:33:45 10° NNW 00:39:41 64° NE 00:45:44 10° SE night (unlit)
09 Feb - 02:20:40 10° NW 02:25:39 28° WSW 02:30:41 10° SSW night (unlit)
09 Feb - 15:44:49 10° S 15:50:07 38° ESE 15:55:27 10° NE daylight
09 Feb - 17:30:47 10° WSW 17:36:21 47° NW 17:42:01 10° NNE daylight
09 Feb - 19:20:29 10° WNW 19:24:13 17° NNW 19:27:59 10° NNE visible
09 Feb - 21:10:28 10° NNW 21:13:10 13° N 21:15:54 10° NE visible
09 Feb - 22:56:56 10° NNW 23:01:47 25° NNE 23:06:41 10° E visible
